sat.trackr.live / text

‹ back to catalog

STARLINK-32930

NORAD 63203 · 2025-048W

PAYLOAD ACTIVE UNKNOWN

§ Identity

Operator
Country
US
Launch date
2025-03-13
Launch site
AFETR
Launch vehicle
Mass (kg)
RCS (m²)

Purposes: comms

External: N2YO · Heavens-Above · Gunter

§ Orbital elements

Epoch: 2026-05-25T00:36:44.204832Z

Period
94.27 min
Inclination
43.0023°
Eccentricity
0.0001239
Mean motion
15.27585736 rev/d
Perigee alt
482.2 km
Apogee alt
483.9 km
Semi-major
6,861.2 km
B*
3.8905e-4
RAAN
14.4768°
Arg perigee
257.7127°
Mean anomaly
102.3586°
Rev number
6,876

§ Raw data

STARLINK-329301 63203U 25048W   26145.02551163  .00010461  00000+0  38905-3 0  99932 63203  43.0023  14.4768 0001239 257.7127 102.3586 15.27585736 68765

JSON: /api/v1/satellites/63203 · /tle

For live sub-satellite position, see the globe view (requires WebGL).

§ Visibility from observer

Set your observer location to see the next 7 days of passes ≥ 10°. The values pass through the URL so the page stays shareable.

No JS? Fill the form by hand. The geolocation button needs JavaScript.